| time (UTC) | temp F | wind direction | speed MPH | gust MPH | rain 1hr in | rain 24hr in | rain mn in | humidity % | barometer mb |
| 20260506232013 | 55 | 313 | 2.0 | 3.0 | 0.00 | 0.02 | 0.02 | 44 | 1015.2 |
| 20260506231510 | 55 | 269 | 4.0 | 8.0 | 0.00 | 0.02 | 0.02 | 44 | 1015.1 |
| 20260506231008 | 55 | 272 | 1.0 | 3.0 | 0.00 | 0.02 | 0.02 | 47 | 1015.2 |
| 20260506230504 | 55 | 273 | 2.0 | 5.0 | 0.00 | 0.02 | 0.02 | 47 | 1015.2 |
| 20260506230001 | 55 | 267 | 1.0 | 3.0 | 0.00 | 0.02 | 0.02 | 46 | 1015.3 |
| 20260506225458 | 55 | 232 | 1.0 | 3.0 | 0.00 | 0.02 | 0.02 | 45 | 1015.2 |
| 20260506224954 | 55 | 300 | 2.0 | 5.0 | 0.00 | 0.02 | 0.02 | 44 | 1015.3 |
| 20260506224452 | 55 | 236 | 3.0 | 5.0 | 0.00 | 0.02 | 0.02 | 43 | 1015.2 |
| 20260506223948 | 55 | 277 | 2.0 | 2.0 | 0.00 | 0.02 | 0.02 | 45 | 1015.3 |
| 20260506223444 | 55 | 294 | 3.0 | 6.0 | 0.00 | 0.02 | 0.02 | 47 | 1015.1 |
| 20260506222941 | 56 | 311 | 3.0 | 6.0 | 0.00 | 0.02 | 0.02 | 44 | 1015.4 |
| 20260506222438 | 56 | 287 | 1.0 | 3.0 | 0.00 | 0.02 | 0.02 | 45 | 1015.4 |
| 20260506221935 | 55 | 264 | 3.0 | 8.0 | 0.00 | 0.02 | 0.02 | 44 | 1015.1 |
| 20260506221432 | 56 | 275 | 5.0 | 9.0 | 0.00 | 0.02 | 0.02 | 41 | 1015.1 |
| 20260506220930 | 56 | 274 | 3.0 | 5.0 | 0.00 | 0.02 | 0.02 | 42 | 1015.1 |
| 20260506220425 | 56 | 270 | 4.0 | 6.0 | 0.00 | 0.02 | 0.02 | 42 | 1015.1 |
| 20260506215922 | 56 | 251 | 7.0 | 8.0 | 0.00 | 0.02 | 0.02 | 41 | 1015.0 |
| 20260506215418 | 56 | 281 | 4.0 | 8.0 | 0.00 | 0.02 | 0.02 | 42 | 1015.1 |
| 20260506214914 | 56 | 222 | 6.0 | 9.0 | 0.00 | 0.02 | 0.02 | 41 | 1015.0 |
| 20260506214411 | 56 | 321 | 2.0 | 7.0 | 0.00 | 0.02 | 0.02 | 43 | 1015.0 |
| 20260506213909 | 56 | 270 | 5.0 | 8.0 | 0.00 | 0.02 | 0.02 | 41 | 1015.1 |
| 20260506213406 | 56 | 274 | 2.0 | 5.0 | 0.00 | 0.02 | 0.02 | 46 | 1015.1 |
| 20260506212903 | 55 | 294 | 1.0 | 3.0 | 0.00 | 0.02 | 0.02 | 39 | 1015.0 |
| 20260506212359 | 56 | 269 | 3.0 | 5.0 | 0.00 | 0.02 | 0.02 | 42 | 1015.1 |
| 20260506211854 | 56 | 328 | 4.0 | 6.0 | 0.00 | 0.02 | 0.02 | 44 | 1015.1 |
| 20260506211350 | 56 | 248 | 4.0 | 6.0 | 0.00 | 0.02 | 0.02 | 41 | 1015.2 |
| 20260506210848 | 56 | 268 | 0.0 | 1.0 | 0.00 | 0.02 | 0.02 | 42 | 1015.1 |
| 20260506210344 | 55 | 338 | 2.0 | 3.0 | 0.00 | 0.02 | 0.02 | 44 | 1015.0 |
| 20260506205842 | 55 | 298 | 1.0 | 3.0 | 0.00 | 0.02 | 0.02 | 42 | 1015.3 |
| 20260506205337 | 56 | 284 | 2.0 | 3.0 | 0.00 | 0.02 | 0.02 | 45 | 1015.2 |
| 20260506204834 | 56 | 240 | 6.0 | 7.0 | 0.00 | 0.02 | 0.02 | 39 | 1015.2 |
| 20260506204332 | 57 | 285 | 3.0 | 7.0 | 0.00 | 0.02 | 0.02 | 42 | 1015.3 |
| 20260506203829 | 57 | 289 | 1.0 | 3.0 | 0.00 | 0.02 | 0.02 | 44 | 1015.2 |
| 20260506203326 | 55 | 309 | 1.0 | 5.0 | 0.00 | 0.02 | 0.02 | 40 | 1015.2 |
| 20260506202823 | 57 | 224 | 7.0 | 11.0 | 0.00 | 0.02 | 0.02 | 43 | 1015.2 |
| 20260506202320 | 56 | 317 | 5.0 | 7.0 | 0.00 | 0.02 | 0.02 | 42 | 1015.2 |
| 20260506201816 | 56 | 274 | 7.0 | 8.0 | 0.00 | 0.02 | 0.02 | 41 | 1015.1 |
| 20260506201314 | 56 | 268 | 6.0 | 7.0 | 0.00 | 0.02 | 0.02 | 42 | 1015.2 |
| 20260506200811 | 56 | 259 | 3.0 | 5.0 | 0.00 | 0.02 | 0.02 | 41 | 1015.3 |
| 20260506200307 | 55 | 283 | 2.0 | 5.0 | 0.00 | 0.02 | 0.02 | 43 | 1015.3 |
| 20260506195803 | 56 | 272 | 1.0 | 5.0 | 0.00 | 0.02 | 0.02 | 43 | 1015.2 |
| 20260506195300 | 55 | 263 | 3.0 | 7.0 | 0.00 | 0.02 | 0.02 | 42 | 1015.3 |
| 20260506194757 | 56 | 269 | 6.0 | 7.0 | 0.00 | 0.02 | 0.02 | 42 | 1015.4 |
| 20260506194253 | 55 | 5 | 3.0 | 6.0 | 0.00 | 0.02 | 0.02 | 41 | 1015.4 |
| 20260506193752 | 54 | 281 | 1.0 | 9.0 | 0.00 | 0.02 | 0.02 | 43 | 1015.5 |
| 20260506193248 | 55 | 289 | 4.0 | 10.0 | 0.00 | 0.02 | 0.02 | 42 | 1015.5 |
| 20260506192744 | 55 | 276 | 3.0 | 8.0 | 0.00 | 0.02 | 0.02 | 42 | 1015.6 |
| 20260506192241 | 54 | 303 | 0.0 | 5.0 | 0.00 | 0.02 | 0.02 | 44 | 1015.4 |
| 20260506191738 | 54 | 237 | 2.0 | 3.0 | 0.00 | 0.02 | 0.02 | 43 | 1015.7 |
| 20260506191234 | 54 | 257 | 4.0 | 6.0 | 0.00 | 0.02 | 0.02 | 43 | 1015.5 |
| 20260506190732 | 54 | 334 | 3.0 | 6.0 | 0.00 | 0.02 | 0.02 | 43 | 1015.6 |
| 20260506190228 | 54 | 262 | 0.0 | 2.0 | 0.00 | 0.02 | 0.02 | 44 | 1015.5 |
| 20260506185725 | 54 | 354 | 3.0 | 8.0 | 0.00 | 0.02 | 0.02 | 46 | 1015.5 |
| 20260506185221 | 54 | 251 | 4.0 | 6.0 | 0.00 | 0.02 | 0.02 | 44 | 1015.4 |
| 20260506184719 | 54 | 263 | 2.0 | 3.0 | 0.00 | 0.02 | 0.02 | 46 | 1015.6 |
| 20260506184216 | 54 | 323 | 3.0 | 3.0 | 0.00 | 0.02 | 0.02 | 48 | 1015.6 |
| 20260506183713 | 53 | 295 | 1.0 | 3.0 | 0.00 | 0.02 | 0.02 | 44 | 1015.6 |
| 20260506183208 | 54 | 300 | 1.0 | 2.0 | 0.00 | 0.02 | 0.02 | 46 | 1015.6 |
| 20260506182706 | 54 | 331 | 2.0 | 5.0 | 0.00 | 0.02 | 0.02 | 43 | 1015.8 |
| 20260506182203 | 54 | 277 | 4.0 | 5.0 | 0.00 | 0.02 | 0.02 | 44 | 1015.6 |
| 20260506181701 | 54 | 286 | 1.0 | 5.0 | 0.00 | 0.02 | 0.02 | 44 | 1015.6 |
| 20260506181158 | 54 | 319 | 1.0 | 2.0 | 0.00 | 0.02 | 0.02 | 42 | 1015.7 |
| 20260506180655 | 54 | 286 | 3.0 | 7.0 | 0.00 | 0.02 | 0.02 | 44 | 1015.8 |
| 20260506180151 | 54 | 291 | 2.0 | 3.0 | 0.00 | 0.02 | 0.02 | 47 | 1015.6 |
| 20260506175647 | 54 | 337 | 2.0 | 2.0 | 0.00 | 0.02 | 0.02 | 40 | 1015.6 |
| 20260506175144 | 55 | 255 | 5.0 | 6.0 | 0.00 | 0.02 | 0.02 | 42 | 1015.5 |
| 20260506174637 | 55 | 300 | 2.0 | 6.0 | 0.00 | 0.02 | 0.02 | 44 | 1015.6 |
| 20260506174134 | 54 | 282 | 3.0 | 3.0 | 0.00 | 0.02 | 0.02 | 43 | 1015.3 |
| 20260506173631 | 55 | 319 | 2.0 | 9.0 | 0.00 | 0.02 | 0.02 | 42 | 1015.4 |
| 20260506173128 | 54 | 325 | 4.0 | 6.0 | 0.00 | 0.02 | 0.02 | 43 | 1015.5 |
| 20260506172625 | 54 | 338 | 2.0 | 6.0 | 0.00 | 0.02 | 0.02 | 42 | 1015.7 |
| 20260506172121 | 53 | 322 | 1.0 | 2.0 | 0.00 | 0.02 | 0.02 | 42 | 1015.3 |
| 20260506171619 | 53 | 301 | 1.0 | 7.0 | 0.00 | 0.02 | 0.02 | 41 | 1015.2 |
| 20260506171117 | 54 | 12 | 2.0 | 5.0 | 0.00 | 0.02 | 0.02 | 46 | 1015.5 |
| 20260506170615 | 54 | 330 | 3.0 | 5.0 | 0.00 | 0.02 | 0.02 | 46 | 1015.4 |
| 20260506170111 | 54 | 341 | 3.0 | 8.0 | 0.00 | 0.02 | 0.02 | 44 | 1015.4 |
| 20260506165609 | 53 | 32 | 2.0 | 5.0 | 0.00 | 0.02 | 0.02 | 43 | 1015.4 |
| 20260506165106 | 54 | 32 | 4.0 | 5.0 | 0.00 | 0.02 | 0.02 | 44 | 1015.5 |
| 20260506164603 | 53 | 299 | 1.0 | 3.0 | 0.00 | 0.02 | 0.02 | 41 | 1015.6 |
| 20260506164100 | 54 | 203 | 2.0 | 6.0 | 0.00 | 0.02 | 0.02 | 47 | 1015.5 |
| 20260506163555 | 54 | 281 | 1.0 | 5.0 | 0.00 | 0.02 | 0.02 | 43 | 1015.5 |
| 20260506163052 | 53 | 287 | 1.0 | 3.0 | 0.00 | 0.02 | 0.02 | 48 | 1015.7 |
| 20260506162548 | 55 | 281 | 5.0 | 7.0 | 0.00 | 0.02 | 0.02 | 46 | 1015.7 |
| 20260506162045 | 54 | 296 | 1.0 | 2.0 | 0.00 | 0.02 | 0.02 | 44 | 1015.6 |
| 20260506161543 | 55 | 347 | 6.0 | 8.0 | 0.00 | 0.02 | 0.02 | 41 | 1015.6 |
| 20260506161039 | 53 | 301 | 1.0 | 2.0 | 0.00 | 0.02 | 0.02 | 42 | 1015.5 |
| 20260506160537 | 55 | 265 | 3.0 | 6.0 | 0.00 | 0.02 | 0.02 | 39 | 1015.5 |
| 20260506160034 | 54 | 313 | 3.0 | 5.0 | 0.00 | 0.02 | 0.02 | 44 | 1015.8 |
| 20260506155532 | 54 | 31 | 4.0 | 7.0 | 0.00 | 0.02 | 0.02 | 41 | 1015.6 |
| 20260506153703 | 53 | 4 | 3.0 | 5.0 | 0.00 | 0.02 | 0.02 | 44 | 1015.8 |
| 20260506153201 | 52 | 61 | 1.0 | 5.0 | 0.00 | 0.02 | 0.02 | 49 | 1015.8 |
| 20260506152658 | 53 | 13 | 4.0 | 7.0 | 0.00 | 0.02 | 0.02 | 45 | 1015.6 |
| 20260506152155 | 54 | 261 | 1.0 | 5.0 | 0.00 | 0.02 | 0.02 | 45 | 1015.6 |
| 20260506151654 | 53 | 288 | 3.0 | 5.0 | 0.00 | 0.02 | 0.02 | 50 | 1015.6 |
| 20260506151150 | 53 | 237 | 5.0 | 6.0 | 0.00 | 0.02 | 0.02 | 47 | 1015.5 |
| 20260506150647 | 53 | 239 | 4.0 | 6.0 | 0.00 | 0.02 | 0.02 | 44 | 1015.5 |
| 20260506150144 | 52 | 9 | 2.0 | 3.0 | 0.00 | 0.02 | 0.02 | 53 | 1015.3 |
| 20260506145641 | 51 | 15 | 3.0 | 6.0 | 0.00 | 0.02 | 0.02 | 47 | 1015.4 |
| 20260506145137 | 52 | 34 | 4.0 | 5.0 | 0.00 | 0.02 | 0.02 | 48 | 1015.3 |
| 20260506144635 | 51 | 38 | 3.0 | 7.0 | 0.00 | 0.02 | 0.02 | 47 | 1015.4 |
| 20260506144131 | 52 | 65 | 2.0 | 7.0 | 0.00 | 0.02 | 0.02 | 45 | 1015.3 |
| 20260506143629 | 52 | 44 | 2.0 | 3.0 | 0.00 | 0.02 | 0.02 | 50 | 1015.2 |
| 20260506143127 | 53 | 256 | 3.0 | 3.0 | 0.00 | 0.02 | 0.02 | 52 | 1015.0 |
| 20260506142625 | 52 | 307 | 3.0 | 5.0 | 0.00 | 0.02 | 0.02 | 55 | 1014.9 |
| 20260506142123 | 51 | 278 | 4.0 | 6.0 | 0.00 | 0.02 | 0.02 | 51 | 1015.1 |
| 20260506141620 | 51 | 18 | 1.0 | 3.0 | 0.00 | 0.02 | 0.02 | 50 | 1015.0 |
| 20260506141119 | 51 | 356 | 1.0 | 5.0 | 0.00 | 0.02 | 0.02 | 50 | 1014.8 |
| 20260506140616 | 51 | 299 | 1.0 | 1.0 | 0.00 | 0.02 | 0.02 | 50 | 1014.8 |
| 20260506140113 | 49 | 277 | 2.0 | 2.0 | 0.00 | 0.02 | 0.02 | 55 | 1014.8 |
| 20260506135610 | 51 | 11 | 3.0 | 6.0 | 0.00 | 0.02 | 0.02 | 52 | 1014.8 |
| 20260506135106 | 50 | 23 | 1.0 | 3.0 | 0.00 | 0.02 | 0.02 | 52 | 1014.8 |
| 20260506134602 | 48 | 288 | 1.0 | 2.0 | 0.00 | 0.02 | 0.02 | 52 | 1014.9 |
| 20260506134058 | 49 | 323 | 3.0 | 7.0 | 0.00 | 0.02 | 0.02 | 53 | 1015.0 |
| 20260506133556 | 49 | 308 | 3.0 | 5.0 | 0.00 | 0.02 | 0.02 | 55 | 1014.8 |
| 20260506133053 | 48 | 77 | 3.0 | 6.0 | 0.00 | 0.02 | 0.02 | 54 | 1014.8 |
| 20260506132550 | 49 | 67 | 3.0 | 5.0 | 0.00 | 0.02 | 0.02 | 60 | 1014.9 |
| 20260506132047 | 48 | 30 | 2.0 | 3.0 | 0.00 | 0.02 | 0.02 | 59 | 1014.7 |
| 20260506131544 | 48 | 6 | 2.0 | 5.0 | 0.00 | 0.02 | 0.02 | 56 | 1014.7 |
| 20260506131040 | 47 | 78 | 1.0 | 6.0 | 0.00 | 0.02 | 0.02 | 60 | 1014.5 |
| 20260506130538 | 48 | 24 | 3.0 | 5.0 | 0.00 | 0.02 | 0.02 | 62 | 1014.5 |
| 20260506130035 | 48 | 359 | 3.0 | 5.0 | 0.00 | 0.02 | 0.02 | 66 | 1014.2 |
| 20260506125533 | 47 | 333 | 1.0 | 5.0 | 0.00 | 0.02 | 0.02 | 65 | 1014.3 |
| 20260506125031 | 47 | 23 | 2.0 | 6.0 | 0.00 | 0.02 | 0.02 | 66 | 1014.5 |
| 20260506124528 | 47 | 2 | 4.0 | 6.0 | 0.00 | 0.02 | 0.02 | 69 | 1014.1 |
| 20260506124026 | 46 | 298 | 2.0 | 3.0 | 0.00 | 0.02 | 0.02 | 73 | 1014.2 |
| 20260506123524 | 46 | 291 | 1.0 | 5.0 | 0.00 | 0.02 | 0.02 | 75 | 1013.6 |
| 20260506123021 | 46 | 313 | 2.0 | 2.0 | 0.00 | 0.02 | 0.02 | 76 | 1014.2 |
| 20260506122518 | 46 | 302 | 1.0 | 2.0 | 0.00 | 0.02 | 0.02 | 75 | 1014.3 |
| 20260506122016 | 46 | 10 | 3.0 | 5.0 | 0.00 | 0.02 | 0.02 | 74 | 1014.2 |
| 20260506121513 | 46 | 356 | 4.0 | 7.0 | 0.00 | 0.02 | 0.02 | 80 | 1014.1 |
| 20260506121009 | 45 | 9 | 1.0 | 6.0 | 0.00 | 0.02 | 0.02 | 88 | 1014.1 |
| 20260506120508 | 44 | 335 | 2.0 | 3.0 | 0.00 | 0.02 | 0.02 | 93 | 1013.9 |
| 20260506120005 | 45 | 290 | 0.0 | 2.0 | 0.00 | 0.02 | 0.02 | 94 | 1013.9 |
| 20260506115502 | 44 | 293 | 1.0 | 3.0 | 0.00 | 0.02 | 0.02 | 95 | 1013.5 |
| 20260506115001 | 44 | 307 | 1.0 | 2.0 | 0.00 | 0.02 | 0.02 | 96 | 1013.5 |
| 20260506114457 | 45 | 278 | 1.0 | 1.0 | 0.00 | 0.02 | 0.02 | 96 | 1013.1 |
| 20260506113956 | 45 | 273 | 0.0 | 1.0 | 0.00 | 0.02 | 0.02 | 96 | 1013.4 |
| 20260506113453 | 44 | 261 | 0.0 | 0.0 | 0.00 | 0.02 | 0.02 | 96 | 1013.3 |
| 20260506112950 | 44 | 261 | 1.0 | 1.0 | 0.00 | 0.02 | 0.02 | 96 | 1013.1 |
| 20260506112447 | 44 | 268 | 1.0 | 1.0 | 0.00 | 0.02 | 0.02 | 96 | 1013.1 |
| 20260506111944 | 44 | 271 | 0.0 | 0.0 | 0.00 | 0.02 | 0.02 | 96 | 1013.0 |
| 20260506111443 | 44 | 289 | 0.0 | 1.0 | 0.00 | 0.02 | 0.02 | 96 | 1012.9 |
| 20260506110939 | 44 | 274 | 0.0 | 0.0 | 0.00 | 0.02 | 0.02 | 96 | 1012.8 |
| 20260506110437 | 44 | 269 | 0.0 | 1.0 | 0.00 | 0.02 | 0.02 | 96 | 1012.8 |
| 20260506105933 | 44 | 270 | 0.0 | 0.0 | 0.00 | 0.02 | 0.02 | 96 | 1012.7 |
| 20260506105430 | 44 | 268 | 0.0 | 0.0 | 0.00 | 0.02 | 0.02 | 96 | 1012.4 |
| 20260506104927 | 44 | 270 | 0.0 | 0.0 | 0.00 | 0.02 | 0.02 | 96 | 1012.5 |
| 20260506104425 | 44 | 301 | 1.0 | 1.0 | 0.00 | 0.02 | 0.02 | 96 | 1012.5 |
| 20260506103923 | 44 | 282 | 1.0 | 1.0 | 0.00 | 0.02 | 0.02 | 96 | 1012.6 |
| 20260506103420 | 44 | 271 | 0.0 | 1.0 | 0.00 | 0.02 | 0.02 | 96 | 1012.5 |
| 20260506102917 | 44 | 271 | 0.0 | 0.0 | 0.00 | 0.02 | 0.02 | 96 | 1012.2 |
| 20260506102415 | 44 | 275 | 0.0 | 0.0 | 0.00 | 0.02 | 0.02 | 96 | 1012.2 |
| 20260506101912 | 44 | 270 | 1.0 | 2.0 | 0.00 | 0.02 | 0.02 | 96 | 1012.2 |
| 20260506101408 | 44 | 265 | 2.0 | 2.0 | 0.00 | 0.02 | 0.02 | 96 | 1012.2 |
| 20260506100906 | 44 | 286 | 0.0 | 1.0 | 0.00 | 0.02 | 0.02 | 96 | 1012.0 |
| 20260506100404 | 44 | 280 | 0.0 | 0.0 | 0.00 | 0.02 | 0.02 | 95 | 1011.8 |
| 20260506095902 | 44 | 271 | 0.0 | 0.0 | 0.00 | 0.02 | 0.02 | 95 | 1011.9 |
| 20260506095400 | 44 | 276 | 0.0 | 1.0 | 0.00 | 0.02 | 0.02 | 95 | 1011.8 |
| 20260506094856 | 44 | 286 | 1.0 | 1.0 | 0.00 | 0.02 | 0.02 | 95 | 1011.8 |
| 20260506094355 | 44 | 281 | 1.0 | 1.0 | 0.00 | 0.02 | 0.02 | 95 | 1012.1 |
| 20260506093852 | 44 | 268 | 0.0 | 1.0 | 0.00 | 0.02 | 0.02 | 95 | 1012.2 |
| 20260506093350 | 44 | 282 | 1.0 | 1.0 | 0.00 | 0.02 | 0.02 | 95 | 1012.0 |
| 20260506092847 | 44 | 278 | 1.0 | 1.0 | 0.00 | 0.02 | 0.02 | 95 | 1012.1 |
| 20260506092345 | 44 | 267 | 1.0 | 2.0 | 0.00 | 0.02 | 0.02 | 95 | 1012.0 |
| 20260506091841 | 44 | 257 | 0.0 | 1.0 | 0.00 | 0.02 | 0.02 | 95 | 1011.9 |
| 20260506091339 | 44 | 267 | 0.0 | 1.0 | 0.00 | 0.02 | 0.02 | 95 | 1011.9 |
| 20260506090836 | 44 | 284 | 1.0 | 1.0 | 0.00 | 0.02 | 0.02 | 95 | 1012.1 |
| 20260506090334 | 44 | 271 | 0.0 | 1.0 | 0.00 | 0.02 | 0.02 | 95 | 1011.9 |
| 20260506085830 | 44 | 261 | 1.0 | 2.0 | 0.00 | 0.02 | 0.02 | 95 | 1011.9 |
| 20260506085326 | 44 | 263 | 1.0 | 1.0 | 0.00 | 0.02 | 0.02 | 95 | 1011.7 |
| 20260506084823 | 44 | 236 | 1.0 | 1.0 | 0.00 | 0.02 | 0.02 | 95 | 1011.5 |
| 20260506084320 | 44 | 276 | 1.0 | 2.0 | 0.00 | 0.02 | 0.02 | 95 | 1011.7 |
| 20260506083817 | 44 | 303 | 0.0 | 0.0 | 0.00 | 0.02 | 0.02 | 95 | 1011.7 |
| 20260506083314 | 44 | 264 | 0.0 | 0.0 | 0.00 | 0.02 | 0.02 | 95 | 1011.7 |
| 20260506082812 | 43 | 261 | 0.0 | 0.0 | 0.00 | 0.02 | 0.02 | 95 | 1011.7 |
| 20260506082308 | 43 | 275 | 1.0 | 1.0 | 0.00 | 0.02 | 0.02 | 95 | 1011.6 |
| 20260506081805 | 43 | 269 | 0.0 | 0.0 | 0.00 | 0.02 | 0.02 | 95 | 1011.8 |
| 20260506081302 | 44 | 257 | 0.0 | 0.0 | 0.00 | 0.02 | 0.02 | 95 | 1011.8 |
| 20260506080800 | 44 | 269 | 0.0 | 0.0 | 0.00 | 0.02 | 0.02 | 95 | 1011.7 |
| 20260506080256 | 43 | 269 | 1.0 | 1.0 | 0.00 | 0.02 | 0.02 | 95 | 1011.5 |
| 20260506073240 | 43 | 268 | 0.0 | 0.0 | 0.00 | 0.02 | 0.02 | 95 | 1011.1 |
| 20260506072737 | 44 | 269 | 4.0 | 5.0 | 0.00 | 0.02 | 0.02 | 95 | 1011.5 |
| 20260506072235 | 44 | 268 | 0.0 | 1.0 | 0.00 | 0.02 | 0.02 | 95 | 1011.4 |
| 20260506071732 | 44 | 292 | 1.0 | 1.0 | 0.00 | 0.02 | 0.02 | 95 | 1011.2 |
| 20260506071230 | 44 | 271 | 0.0 | 1.0 | 0.00 | 0.02 | 0.02 | 95 | 1011.3 |
| 20260506070727 | 44 | 248 | 1.0 | 1.0 | 0.00 | 0.02 | 0.02 | 95 | 1011.0 |
| 20260506070224 | 44 | 272 | 1.0 | 1.0 | 0.00 | 0.02 | 0.02 | 95 | 1011.0 |
| 20260506062200 | 44 | 258 | 0.0 | 1.0 | 0.00 | 0.01 | 0.01 | 95 | 1011.6 |
| 20260506061656 | 44 | 247 | 0.0 | 1.0 | 0.00 | 0.01 | 0.01 | 95 | 1012.0 |
| 20260506061154 | 44 | 267 | 0.0 | 1.0 | 0.00 | 0.01 | 0.01 | 95 | 1012.1 |
| 20260506060653 | 45 | 267 | 0.0 | 0.0 | 0.00 | 0.01 | 0.01 | 95 | 1012.2 |
| 20260506060149 | 44 | 281 | 1.0 | 1.0 | 0.00 | 0.01 | 0.01 | 95 | 1012.0 |
| 20260506051121 | 45 | 262 | 0.0 | 0.0 | 0.00 | 0.00 | 0.00 | 94 | 1011.9 |
| 20260506050619 | 45 | 266 | 0.0 | 1.0 | 0.00 | 0.00 | 0.00 | 94 | 1012.2 |
| 20260506050116 | 45 | 265 | 0.0 | 1.0 | 0.00 | 0.00 | 0.00 | 94 | 1012.0 |
| 20260506045109 | 45 | 279 | 0.0 | 1.0 | 0.00 | 0.00 | 0.00 | 94 | 1011.7 |
| 20260506044608 | 45 | 279 | 0.0 | 0.0 | 0.00 | 0.00 | 0.00 | 94 | 1011.8 |
| 20260506044104 | 45 | 271 | 0.0 | 1.0 | 0.00 | 0.00 | 0.00 | 93 | 1011.9 |
| 20260506043601 | 45 | 270 | 0.0 | 0.0 | 0.00 | 0.00 | 0.00 | 93 | 1011.8 |
| 20260506043059 | 45 | 269 | 0.0 | 0.0 | 0.00 | 0.00 | 0.00 | 93 | 1011.7 |
| 20260506042558 | 44 | 264 | 0.0 | 0.0 | 0.00 | 0.00 | 0.00 | 93 | 1011.5 |
| 20260506042056 | 44 | 263 | 0.0 | 0.0 | 0.00 | 0.00 | 0.00 | 93 | 1011.5 |
| 20260506041554 | 44 | 258 | 0.0 | 0.0 | 0.00 | 0.00 | 0.00 | 93 | 1011.7 |
| 20260506041051 | 45 | 267 | 0.0 | 0.0 | 0.00 | 0.00 | 0.00 | 93 | 1011.5 |
| 20260506040549 | 45 | 261 | 0.0 | 0.0 | 0.00 | 0.00 | 0.00 | 93 | 1011.7 |
| 20260506040044 | 45 | 267 | 0.0 | 0.0 | 0.00 | 0.52 | 0.52 | 93 | 1011.6 |
| 20260506035542 | 45 | 258 | 0.0 | 0.0 | 0.00 | 0.52 | 0.52 | 92 | 1011.7 |
| 20260506035038 | 44 | 266 | 0.0 | 0.0 | 0.00 | 0.52 | 0.52 | 92 | 1011.5 |
| 20260506034536 | 44 | 268 | 0.0 | 1.0 | 0.00 | 0.52 | 0.52 | 92 | 1011.7 |
| 20260506034032 | 44 | 258 | 0.0 | 0.0 | 0.00 | 0.52 | 0.52 | 92 | 1011.5 |
| 20260506033530 | 44 | 257 | 0.0 | 0.0 | 0.00 | 0.52 | 0.52 | 92 | 1011.5 |
| 20260506033027 | 44 | 255 | 0.0 | 0.0 | 0.05 | 0.52 | 0.52 | 93 | 1011.6 |
| 20260506032524 | 44 | 263 | 0.0 | 0.0 | 0.05 | 0.52 | 0.52 | 93 | 1011.7 |
| 20260506032020 | 44 | 262 | 0.0 | 0.0 | 0.00 | 0.51 | 0.51 | 93 | 1011.7 |
| 20260506031518 | 45 | 258 | 0.0 | 0.0 | 0.00 | 0.51 | 0.51 | 93 | 1011.6 |
| 20260506031015 | 45 | 251 | 0.0 | 0.0 | 0.00 | 0.51 | 0.51 | 93 | 1011.7 |
| 20260506030513 | 45 | 271 | 0.0 | 0.0 | 0.00 | 0.51 | 0.51 | 93 | 1011.7 |
| 20260506030010 | 45 | 267 | 0.0 | 0.0 | 0.00 | 0.51 | 0.51 | 92 | 1011.6 |
| 20260506025507 | 44 | 272 | 0.0 | 0.0 | 0.00 | 0.51 | 0.51 | 92 | 1011.6 |
| 20260506025003 | 44 | 273 | 0.0 | 0.0 | 0.00 | 0.51 | 0.51 | 92 | 1011.6 |
| 20260506024500 | 44 | 269 | 0.0 | 0.0 | 0.00 | 0.51 | 0.51 | 93 | 1011.5 |
| 20260506023956 | 45 | 268 | 0.0 | 0.0 | 0.00 | 0.51 | 0.51 | 93 | 1011.7 |
| 20260506023453 | 45 | 282 | 0.0 | 1.0 | 0.00 | 0.51 | 0.51 | 93 | 1011.4 |
| 20260506022949 | 45 | 279 | 0.0 | 0.0 | 0.00 | 0.51 | 0.51 | 93 | 1011.4 |
| 20260506022447 | 45 | 275 | 0.0 | 0.0 | 0.00 | 0.51 | 0.51 | 93 | 1011.4 |
| 20260506021945 | 45 | 284 | 0.0 | 0.0 | 0.00 | 0.51 | 0.51 | 92 | 1011.5 |
| 20260506021442 | 45 | 285 | 0.0 | 0.0 | 0.00 | 0.51 | 0.51 | 92 | 1011.6 |
| 20260506020939 | 45 | 263 | 0.0 | 0.0 | 0.00 | 0.51 | 0.51 | 92 | 1011.5 |
| 20260506020437 | 44 | 262 | 0.0 | 0.0 | 0.00 | 0.51 | 0.51 | 92 | 1011.3 |
| 20260506015934 | 44 | 261 | 0.0 | 0.0 | 0.00 | 0.51 | 0.51 | 92 | 1011.6 |
| 20260506015431 | 45 | 261 | 0.0 | 0.0 | 0.00 | 0.51 | 0.51 | 91 | 1011.6 |
| 20260506014928 | 44 | 258 | 0.0 | 0.0 | 0.00 | 0.51 | 0.51 | 91 | 1011.5 |
| 20260506014425 | 44 | 261 | 0.0 | 0.0 | 0.00 | 0.51 | 0.51 | 91 | 1011.5 |
| 20260506013921 | 44 | 263 | 0.0 | 0.0 | 0.00 | 0.51 | 0.51 | 91 | 1011.5 |
| 20260506013420 | 45 | 257 | 0.0 | 1.0 | 0.00 | 0.51 | 0.51 | 91 | 1011.5 |
| 20260506012916 | 44 | 246 | 1.0 | 1.0 | 0.00 | 0.51 | 0.51 | 90 | 1011.5 |
| 20260506012412 | 44 | 236 | 1.0 | 1.0 | 0.00 | 0.51 | 0.51 | 90 | 1011.1 |
| 20260506011909 | 44 | 276 | 0.0 | 1.0 | 0.00 | 0.51 | 0.51 | 90 | 1011.1 |
| 20260506011406 | 44 | 288 | 1.0 | 2.0 | 0.00 | 0.51 | 0.51 | 91 | 1011.0 |
| 20260506010903 | 44 | 280 | 0.0 | 2.0 | 0.00 | 0.51 | 0.51 | 92 | 1011.0 |
| 20260506010402 | 44 | 352 | 4.0 | 5.0 | 0.00 | 0.51 | 0.51 | 93 | 1010.9 |
| 20260506005858 | 45 | 339 | 4.0 | 5.0 | 0.00 | 0.51 | 0.51 | 94 | 1010.9 |
| 20260506005355 | 45 | 319 | 3.0 | 6.0 | 0.00 | 0.51 | 0.51 | 95 | 1010.9 |
| 20260506004851 | 46 | 41 | 2.0 | 5.0 | 0.07 | 0.51 | 0.51 | 95 | 1011.0 |
| 20260506004349 | 47 | 28 | 3.0 | 6.0 | 0.07 | 0.51 | 0.51 | 95 | 1011.0 |
| 20260506003845 | 48 | 25 | 2.0 | 2.0 | 0.05 | 0.50 | 0.50 | 95 | 1011.1 |
| 20260506003341 | 48 | 243 | 1.0 | 2.0 | 0.05 | 0.50 | 0.50 | 95 | 1011.1 |
| 20260506002838 | 48 | 300 | 1.0 | 1.0 | 0.00 | 0.49 | 0.49 | 95 | 1011.0 |
| 20260506002334 | 48 | 276 | 0.0 | 1.0 | 0.00 | 0.49 | 0.49 | 95 | 1010.8 |
| 20260506001829 | 48 | 267 | 0.0 | 0.0 | 0.07 | 0.49 | 0.49 | 95 | 1011.0 |
| 20260506001327 | 48 | 243 | 0.0 | 0.0 | 0.07 | 0.49 | 0.49 | 95 | 1011.0 |
| 20260506000824 | 48 | 265 | 0.0 | 0.0 | 0.00 | 0.48 | 0.48 | 95 | 1011.1 |
| 20260506000323 | 48 | 263 | 0.0 | 0.0 | 0.05 | 0.48 | 0.48 | 94 | 1010.8 |
| 20260505235818 | 48 | 267 | 0.0 | 0.0 | 0.12 | 0.48 | 0.48 | 94 | 1010.8 |
| 20260505235316 | 48 | 265 | 0.0 | 0.0 | 0.07 | 0.47 | 0.47 | 94 | 1010.9 |
| 20260505234813 | 48 | 258 | 0.0 | 0.0 | 0.07 | 0.46 | 0.46 | 94 | 1010.9 |
| 20260505234310 | 48 | 264 | 0.0 | 1.0 | 0.07 | 0.46 | 0.46 | 94 | 1010.8 |
| 20260505233807 | 48 | 292 | 1.0 | 1.0 | 0.00 | 0.45 | 0.45 | 94 | 1011.0 |
| 20260505233305 | 48 | 263 | 0.0 | 0.0 | 0.05 | 0.45 | 0.45 | 94 | 1010.8 |
| 20260505232802 | 48 | 264 | 0.0 | 0.0 | 0.05 | 0.45 | 0.45 | 94 | 1010.5 |
| 20260505232259 | 48 | 274 | 0.0 | 0.0 | 0.00 | 0.44 | 0.44 | 94 | 1010.5 |